When you browse on this site, cookies collect data to enhance your experience and personalize the content and advertising you see.
Visit our Privacy Policy to learn more. By continuing to use the site, you agree to this use of cookies and data.
  • In Latvia
  • List of Countries
  • For 7 days
  • Water Temperature
  • Weather Map
  • Weather Widgets
  • user-avatar
    Login

    Hourly Weather Lisburn

    Today, 19 September, Thursday

    Time Temperature Precipitation Wind Pressure Humidity
    00:00 +11°C° 0 mm 0 mps 769 mmHg 90%
    01:00 +11°C° 0 mm 0 mps 769 mmHg 91%
    02:00 +11°C° 0 mm 1 mps 769 mmHg 91%
    03:00 +11°C° 0 mm 1 mps 768 mmHg 91%
    04:00 +11°C° 0 mm 1 mps 768 mmHg 91%
    05:00 +11°C° 0 mm 1 mps 768 mmHg 91%
    06:00 +11°C° 0 mm 1 mps 769 mmHg 91%
    07:00 +12°C° 0 mm 1 mps 769 mmHg 88%
    08:00 +14°C° 0 mm 1 mps 769 mmHg 84%
    09:00 +16°C° 0 mm 1 mps 769 mmHg 81%
    10:00 +18°C° 0 mm 1 mps 769 mmHg 77%
    11:00 +19°C° 0 mm 1 mps 769 mmHg 74%
    12:00 +19°C° 0 mm 2 mps 769 mmHg 71%
    13:00 +19°C° 0 mm 2 mps 768 mmHg 71%
    14:00 +19°C° 0 mm 2 mps 768 mmHg 72%
    15:00 +19°C° 0 mm 3 mps 768 mmHg 72%
    16:00 +18°C° 0 mm 2 mps 768 mmHg 76%
    17:00 +17°C° 0 mm 2 mps 768 mmHg 81%
    18:00 +15°C° 0 mm 2 mps 767 mmHg 85%
    19:00 +14°C° 0 mm 2 mps 767 mmHg 86%
    20:00 +13°C° 0 mm 2 mps 767 mmHg 87%
    21:00 +12°C° 0 mm 2 mps 767 mmHg 88%
    22:00 +12°C° 0 mm 2 mps 767 mmHg 89%
    23:00 +12°C° 0 mm 1 mps 767 mmHg 89%

    Tomorrow, 20 September, Friday

    Time Temperature Precipitation Wind Pressure Humidity
    00:00 +11°C° 0 mm 1 mps 767 mmHg 89%
    01:00 +10°C° 0 mm 2 mps 766 mmHg 90%
    02:00 +10°C° 0 mm 2 mps 766 mmHg 91%
    03:00 +10°C° 0 mm 2 mps 766 mmHg 92%
    04:00 +10°C° 0 mm 2 mps 765 mmHg 93%
    05:00 +10°C° 0 mm 2 mps 764 mmHg 93%
    06:00 +10°C° 0 mm 2 mps 764 mmHg 94%
    07:00 +13°C° 0 mm 2 mps 764 mmHg 91%
    08:00 +13°C° 0 mm 3 mps 764 mmHg 87%
    09:00 +16°C° 0 mm 3 mps 763 mmHg 84%
    10:00 +17°C° 0 mm 4 mps 763 mmHg 81%
    11:00 +18°C° 0 mm 4 mps 762 mmHg 77%
    12:00 +17°C° 0 mm 5 mps 762 mmHg 74%
    13:00 +17°C° 0 mm 5 mps 761 mmHg 74%
    14:00 +17°C° 0 mm 5 mps 761 mmHg 75%
    15:00 +17°C° 0 mm 5 mps 760 mmHg 75%
    16:00 +16°C° 0 mm 5 mps 759 mmHg 79%
    17:00 +15°C° 0 mm 5 mps 759 mmHg 83%
    18:00 +14°C° 0 mm 4 mps 758 mmHg 86%
    19:00 +14°C° 0 mm 5 mps 758 mmHg 85%
    20:00 +14°C° 0 mm 6 mps 758 mmHg 83%
    21:00 +14°C° 0 mm 7 mps 757 mmHg 82%
    22:00 +14°C° 0 mm 7 mps 757 mmHg 80%
    23:00 +14°C° 0 mm 7 mps 756 mmHg 79%

    Day after tomorrow, 21 September, Saturday

    Time Temperature Precipitation Wind Pressure Humidity
    00:00 +14°C° 0 mm 7 mps 756 mmHg 77%
    01:00 +12°C° 0 mm 7 mps 755 mmHg 77%
    02:00 +12°C° 0 mm 7 mps 755 mmHg 77%
    03:00 +11°C° 0 mm 7 mps 754 mmHg 77%
    04:00 +11°C° 0 mm 7 mps 754 mmHg 78%
    05:00 +11°C° 0 mm 7 mps 753 mmHg 80%
    06:00 +11°C° 0 mm 7 mps 753 mmHg 81%
    07:00 +12°C° 0 mm 8 mps 752 mmHg 79%
    08:00 +13°C° 0 mm 8 mps 752 mmHg 76%
    09:00 +13°C° 0 mm 8 mps 751 mmHg 74%
    10:00 +15°C° 0 mm 8 mps 751 mmHg 73%
    11:00 +16°C° 0 mm 9 mps 751 mmHg 71%
    12:00 +16°C° 0 mm 9 mps 750 mmHg 69%
    13:00 +16°C° 0 mm 8 mps 750 mmHg 71%
    14:00 +17°C° 0 mm 8 mps 749 mmHg 72%
    15:00 +17°C° 0 mm 7 mps 749 mmHg 73%
    16:00 +16°C° 0 mm 7 mps 748 mmHg 76%
    17:00 +16°C° 0 mm 6 mps 748 mmHg 78%
    18:00 +16°C° 0 mm 6 mps 748 mmHg 81%
    19:00 +16°C° 0 mm 6 mps 748 mmHg 81%
    20:00 +16°C° 0 mm 6 mps 748 mmHg 82%
    21:00 +16°C° 0 mm 6 mps 748 mmHg 82%
    22:00 +16°C° 0 mm 5 mps 748 mmHg 84%
    23:00 +16°C° 0 mm 5 mps 747 mmHg 86%

    22 September, Sunday

    Time Temperature Precipitation Wind Pressure Humidity
    00:00 +15°C° 0 mm 5 mps 747 mmHg 88%
    01:00 +15°C° 0 mm 5 mps 747 mmHg 88%
    02:00 +15°C° 0 mm 5 mps 746 mmHg 87%
    03:00 +16°C° 0 mm 6 mps 746 mmHg 86%
    04:00 +15°C° 0 mm 5 mps 746 mmHg 88%
    05:00 +15°C° 0 mm 5 mps 746 mmHg 90%
    06:00 +15°C° 0 mm 5 mps 745 mmHg 91%
    07:00 +15°C° 0.1 mm 5 mps 745 mmHg 92%
    08:00 +15°C° 0.1 mm 5 mps 745 mmHg 92%
    09:00 +16°C° 0.1 mm 5 mps 745 mmHg 92%
    10:00 +17°C° 0.3 mm 4 mps 746 mmHg 93%
    11:00 +15°C° 0.3 mm 4 mps 746 mmHg 94%
    12:00 +16°C° 0.3 mm 3 mps 746 mmHg 95%
    13:00 +16°C° 0.9 mm 3 mps 746 mmHg 95%
    14:00 +16°C° 0.9 mm 2 mps 746 mmHg 96%
    15:00 +15°C° 0.9 mm 2 mps 746 mmHg 96%
    16:00 +15°C° 0.2 mm 2 mps 746 mmHg 96%
    17:00 +15°C° 0.2 mm 2 mps 747 mmHg 96%
    18:00 +15°C° 0.2 mm 2 mps 747 mmHg 95%
    19:00 +14°C° 0 mm 2 mps 747 mmHg 95%
    20:00 +13°C° 0 mm 2 mps 748 mmHg 96%
    21:00 +13°C° 0 mm 2 mps 748 mmHg 96%
    22:00 +13°C° 0 mm 1 mps 748 mmHg 95%
    23:00 +12°C° 0 mm 1 mps 749 mmHg 95%

    23 September, Monday

    Time Temperature Precipitation Wind Pressure Humidity
    00:00 +12°C° 0 mm 1 mps 749 mmHg 94%
    01:00 +12°C° 0 mm 1 mps 749 mmHg 94%
    02:00 +12°C° 0 mm 1 mps 749 mmHg 94%
    03:00 +12°C° 0 mm 1 mps 749 mmHg 95%
    04:00 +12°C° 0 mm 1 mps 749 mmHg 95%
    05:00 +12°C° 0 mm 1 mps 750 mmHg 96%
    06:00 +12°C° 0 mm 1 mps 750 mmHg 97%
    07:00 +12°C° 0 mm 2 mps 750 mmHg 95%
    08:00 +13°C° 0 mm 2 mps 750 mmHg 93%
    09:00 +14°C° 0 mm 2 mps 750 mmHg 90%
    10:00 +15°C° 0 mm 2 mps 750 mmHg 87%
    11:00 +16°C° 0 mm 3 mps 750 mmHg 83%
    12:00 +15°C° 0 mm 4 mps 750 mmHg 79%
    13:00 +15°C° 0 mm 4 mps 750 mmHg 78%
    14:00 +15°C° 0 mm 5 mps 750 mmHg 77%
    15:00 +15°C° 0 mm 6 mps 749 mmHg 76%
    16:00 +15°C° 0.1 mm 6 mps 749 mmHg 82%
    17:00 +14°C° 0.1 mm 6 mps 749 mmHg 88%
    18:00 +14°C° 0.1 mm 5 mps 748 mmHg 93%
    19:00 +14°C° 0.5 mm 6 mps 748 mmHg 94%
    20:00 +14°C° 0.5 mm 6 mps 748 mmHg 95%
    21:00 +14°C° 0.5 mm 7 mps 748 mmHg 96%
    22:00 +14°C° 0.2 mm 6 mps 748 mmHg 96%
    23:00 +14°C° 0.2 mm 6 mps 748 mmHg 96%

    24 September, Tuesday

    Time Temperature Precipitation Wind Pressure Humidity
    00:00 +14°C° 0.2 mm 5 mps 748 mmHg 97%
    01:00 +14°C° 0 mm 4 mps 747 mmHg 97%
    02:00 +14°C° 0 mm 4 mps 747 mmHg 98%
    03:00 +14°C° 0 mm 3 mps 747 mmHg 98%
    04:00 +14°C° 0 mm 3 mps 747 mmHg 98%
    05:00 +14°C° 0 mm 3 mps 746 mmHg 98%
    06:00 +15°C° 0 mm 2 mps 746 mmHg 98%
    07:00 +16°C° 0.4 mm 3 mps 746 mmHg 98%
    08:00 +16°C° 0.4 mm 3 mps 745 mmHg 97%
    09:00 +15°C° 0.4 mm 4 mps 745 mmHg 97%
    10:00 +15°C° 1.5 mm 4 mps 745 mmHg 97%
    11:00 +15°C° 1.5 mm 5 mps 744 mmHg 97%
    12:00 +15°C° 1.5 mm 5 mps 743 mmHg 97%
    13:00 +15°C° 2.2 mm 5 mps 743 mmHg 97%
    14:00 +15°C° 2.2 mm 5 mps 742 mmHg 97%
    15:00 +15°C° 2.2 mm 5 mps 741 mmHg 97%
    16:00 +15°C° 0.2 mm 4 mps 741 mmHg 97%
    17:00 +16°C° 0.2 mm 3 mps 741 mmHg 97%
    18:00 +16°C° 0.2 mm 2 mps 740 mmHg 96%
    19:00 +16°C° 0 mm 3 mps 741 mmHg 96%
    20:00 +14°C° 0 mm 3 mps 741 mmHg 96%
    21:00 +13°C° 0 mm 4 mps 741 mmHg 95%
    22:00 +13°C° 0 mm 4 mps 741 mmHg 95%
    23:00 +12°C° 0 mm 4 mps 741 mmHg 95%
    Show more